Other Public Products
Issued by NWS Grand Forks, ND

Home | Current Version | Previous Version | Graphics & Text | Print | Product List | Glossary On
Versions: 1 2 3 4 5 6 7 8 9 10 11 12 13 14 15 16 17 18 19 20 21 22 23 24 25 26 27 28 29 30 31 32 33 34 35 36 37 38 39 40 41 42 43 44 45 46 47 48 49 50
000
FPUS83 KFGF 170210
OPUFGF
PRAIRIE TO PINES WEATHER ROUNDUP
NATIONAL WEATHER SERVICE EASTERN NORTH DAKOTA/GRAND FORKS ND
900 PM CDT TUE SEP 16 2014

 **SATELLITE DATA USED TO AUGMENT SKY COVER AT AUTOMATED STATIONS**
 *****  WEATHER ACROSS EASTERN NORTH DAKOTA  *****

CITY           SKY/WX    TMP DP  RH WIND       PRES   REMARKS
GRAND FORKS    CLEAR     54  46  74 S7        29.92R
GRAND FORKS AF CLEAR     52  45  75 S8        29.92S
GRAND CITY NWS   N/A     57 N/A N/A S7          N/A
BUXTON         NOT AVBL
DEVILS LAKE    CLEAR     61  45  55 S7        29.90F
FARGO          CLEAR     62  45  53 SE8       29.93F
WAHPETON ARPT  PTCLDY    59  43  55 SE5       29.94S
$$

 *****  WEATHER ACROSS CENTRAL AND WESTERN NORTH DAKOTA  *****

CITY           SKY/WX    TMP DP  RH WIND       PRES   REMARKS
JAMESTOWN      CLEAR     52  47  83 NE6       29.93S
BISMARCK       CLEAR     56  48  74 E7        29.92R
MINOT          CLEAR     55  44  66 N5        29.90F
MINOT AFB      CLEAR     52  47  82 S1        29.90S
GARRISON         N/A     57  43  59 NW6       29.91F
WILLISTON      CLEAR     50  40  68 CALM      29.91S
DICKINSON      CLEAR     55  45  68 E7        29.92S
HETTINGER      MOCLDY    57  46  66 NE7       29.94R
$$

 *****  OTHER OBSERVATIONS NORTHEAST NORTH DAKOTA  *****

CITY           SKY/WX    TMP DP  RH WIND       PRES   REMARKS
WALHALLA         N/A     54  46  76 CALM      29.90R
LANGDON        FAIR      52  37  58 SW8       29.91S
CAVALIER       FAIR      55  46  71 CALM      29.89S HAZE
GRAFTON        FAIR      55  43  62 S9        29.90S
CANDO          FAIR      54  43  66 S5        29.92S
FORT TOTTEN    NOT AVBL
ROLLA          FAIR      50  41  71 W7        29.93S
RUGBY          FAIR      57  48  72 NE3       29.91S
 ***** THE ABOVE OBSERVATIONS ARE NON NWS ARE NOT QUALITY
        CONTROLLED AND MAY MIS-REPORT RAIN FOR SNOW...
$$

 *****  OTHER OBSERVATIONS SOUTHEAST NORTH DAKOTA *****

CITY           SKY/WX    TMP DP  RH WIND       PRES   REMARKS
COOPERSTOWN    NOT AVBL
VALLEY CITY    FAIR      59  45  58 E5        29.93S
OAKES            N/A     57  54  88 CALM      29.92R
GWINNER        CLEAR     55  52  88 CALM      29.93R
SHEYENNE NWR     N/A     54  48  81 E6        29.95S
BUFFALO        NOT AVBL
WYNDMERE         N/A     61  48  63 SE5         N/A
 ***** THE ABOVE OBSERVATIONS ARE NON NWS ARE NOT QUALITY
       CONTROLLED AND MAY MIS-REPORT RAIN FOR SNOW...
$$

  *****  WEATHER ACROSS NORTHERN MINNESOTA  *****

CITY           SKY/WX    TMP DP  RH WIND       PRES   REMARKS
FLAG ISLAND    CLOUDY    57  52  82 CALM      29.90F
WARROAD        MOCLDY    55  52  88 S5        29.91F
ROSEAU         MOCLDY    55  50  82 SE5       29.91F
HALLOCK        CLEAR     55  48  76 S5        29.89S
THF RVR FALLS  CLEAR     54  43  66 S8        29.94S
HALSTAD          N/A     52  41  66 SE10        N/A
FOSSTON        CLEAR     50  41  71 S5        29.97S
BAUDETTE       CLOUDY    54  49  83 CALM      29.92F
WASKISH        CLOUDY    54  52  94 CALM      29.94S
CROOKSTON      CLEAR     55  43  62 S7        29.94S
$$
  *****  WEATHER ACROSS CENTRAL AND WEST MINNESOTA  *****

CITY           SKY/WX    TMP DP  RH WIND       PRES   REMARKS
BEMIDJI        CLEAR     56  43  63 SW5       29.97S
PARK RAPIDS    CLEAR     55  42  61 SE5       29.98S
WADENA         CLEAR     50  43  76 CALM      29.98F
DETROIT LAKES  CLEAR     55  45  67 SE5       29.98S
MOORHEAD       CLEAR     59  46  63 SE5       29.95S
FERGUS FALLS   PTCLDY    59  43  55 SE6       29.96S
ELBOW LAKE     FAIR      58  47  67 SE7       29.96S
MORRIS MN      CLEAR     61  48  63 SE8       29.95F
STAPLES        CLEAR     48  43  81 CALM      30.00S
WHEATON        CLEAR     54  48  82 SE8       29.96S
$$
  *****  WEATHER ELSEWHERE ACROSS MINNESOTA  *****

CITY           SKY/WX    TMP DP  RH WIND       PRES   REMARKS
DULUTH         PTCLDY    55  42  61 SW8       29.99S
INTRNTL FALLS  CLOUDY    50  49  96 CALM      29.93F
ELY            MOCLDY    52  46  82 CALM      29.96F
CLOQUET        CLEAR     55  43  62 SW6       30.00S
BRAINERD       CLEAR     50  45  83 CALM      30.01R
HIBBING        PTCLDY    49  44  83 SW3       29.97S
ALEXANDRIA     MOCLDY    57  46  66 SE6       29.99S
SAINT CLOUD    CLOUDY    57  48  72 SE5       30.00S
MINNEAPOLIS    PTCLDY    59  46  62 SE5       30.02S
$$

  *****  WEATHER ACROSS SOUTH DAKOTA  *****

CITY           SKY/WX    TMP DP  RH WIND       PRES   REMARKS
SIOUX FALLS    CLOUDY    63  49  60 S14       29.97S
BROOKINGS      NOT AVBL
WATERTOWN      CLOUDY    61  51  70 SE7       29.95S
HURON          PTCLDY    63  55  75 SE6       29.91R
SISSETON         N/A     62  53  72 S5        29.92S
ABERDEEN       CLEAR     55  52  89 E3        29.91S
MITCHELL       PTCLDY    63  55  75 S10       29.93R
PIERRE         PTCLDY    60  51  72 N5        29.89R
MOBRIDGE       CLEAR     60  50  69 NE8       29.88S
RAPID CITY     CLEAR     58  48  69 W3        29.95S
$$

  *****  SOME WEATHER IN NEARBY STATES *****

CITY           SKY/WX    TMP DP  RH WIND       PRES   REMARKS
GLASGOW MT     CLEAR     61  42  49 SE8       29.88F
GREAT FALLS MT CLOUDY    68  45  43 S7        29.90S
CHEYENNE WY    CLEAR     69  34  27 N5        30.15R
SCOTTSBLUFF NE PTCLDY    64  50  60 E7        29.98S
OMAHA NE       CLOUDY    64  50  60 SE7       30.03R
DES MOINES IA  CLEAR     60  49  66 SE6       30.06R
DAVENPORT IA   CLEAR     52  43  71 SE5       30.09S
CHICAGO IL     CLEAR     58  48  69 CALM      30.10S
EAU CLAIRE WI  CLEAR     50  44  80 CALM      30.04S
LA CROSSE WI   CLEAR     54  48  80 SE6       30.06R
$$

  *****  SOME NATIONAL WEATHER *****

CITY           SKY/WX    TMP DP  RH WIND       PRES   REMARKS
LA GUARDIA NY  MOCLDY    67  52  58 N7        30.00S
RALEIGH NC     CLOUDY    72  66  81 CALM      29.99R
ATLANTA GA     PTCLDY    77  67  71 NW6       30.00R
NEW ORLEANS LA CLOUDY    77  74  90 CALM      30.00R
OKLAHOMA CITY  CLOUDY    80  71  74 E12       30.01R
ALBUQUERQUE NM CLOUDY    65  55  70 SE8       30.23R
SALT LAKE CITY PTCLDY    83  39  21 CALM      29.95S
LOS ANGELES CA PTCLDY    80  60  50 W9        29.71F
BOISE ID       CLEAR     85  44  23 N5        29.81F
SEATTLE WA     CLOUDY    67  54  63 SW3       29.88F
$$

*** WEATHER ACROSS MANITOBA...SASKATCHEWAN AND ONTARIO ***
                ***ONTARIO***

CITY           SKY/WX    TMP DP  RH WIND       PRES   REMARKS
GERALDTON      MOCLDY    36  28  75 NE3       30.03S
THUNDER BAY    CLOUDY    48  43  81 E9        30.02R
SIOUX LOOKOUT  CLOUDY    43  39  87 CALM      29.98F
TORONTO        PTCLDY    54  43  66 W6        30.06S
BIG TROUT LK   CLOUDY    37  23  56 NW6       30.05S
PICKLE LAKE    MOCLDY    37  25  60 E8        30.02S
DRYDEN         CLOUDY    46  39  76 E7        29.96S
KENORA         CLOUDY    52  45  76 E7        29.93F
$$
                *** MANITOBA***

CITY           SKY/WX    TMP DP  RH WIND       PRES   REMARKS
BRANDON        PTCLDY    52  46  82 NE6       29.90S
DAUPHIN        MOCLDY    50  48  93 NE5       29.92R
ISLAND LAKE    MOCLDY    39  27  60 N6        30.08R
PILOT MOUND      N/A     54  43  66 E2          N/A
THE PAS        LGT RAIN  36  36 100 E9        30.07R
THOMPSON       PTCLDY    27  25  93 N5        30.11R WCI  21
WINNIPEG       MOCLDY    55  48  76 NE3       29.89F
CHURCHILL      CLOUDY    34  27  75 NW13G20   30.06F WCI  25
GILLAM         PTCLDY    36  23  60 N13       30.10S
$$
                ***SASKATCHEWAN***

CITY           SKY/WX    TMP DP  RH WIND       PRES   REMARKS
ESTEVAN        PTCLDY    61  43  51 S3        29.90S
KINDERSLEY     CLEAR     59  45  58 NE7       29.87R
LLOYDMINSTER   PTCLDY    59  41  51 E6        29.86R
PRINCE ALBERT  MOCLDY    45  41  87 E16G23    29.95R
REGINA         PTCLDY    63  46  55 NE2       29.88S
YORKTON        MOCLDY    63  46  55 SW5       29.85S


USA.gov is the U.S. government's official web portal to all federal, state and local government web resources and services.